Temp
14 14 14 14 14 14 14 14 14 14 14 14 14 14 14 15 15 16 19 18 18 17 17 17 17 18 18 18 19 20 15 16 18 17 16 16 17 17 19 19 17 16 17 16 16
13 13 13 13 14 14 14 14 14 14 14 14 14 14 14 15 16 19 19 19 18 17 17 17 17 18 17 19 20 18 15 18 18 16 15 16 19 18 18 17 14 16 14 16 15
12 13 13 13 13 13 13 14 14 14 14 14 14 14 15 15 15 19 19 19 18 18 18 18 17 19 18 19 20 20 18 17 18 18 17 15 17 18 18 14 15 17 16 15 13
12 12 13 12 13 13 13 13 14 14 14 14 13 14 15 14 17 19 19 19 18 18 18 18 18 19 19 18 21 19 22 21 18 18 18 16 18 18 19 17 16 17 16 15 15
11 12 12 12 12 13 13 13 13 13 14 13 13 14 14 14 18 19 19 19 19 18 18 19 19 20 18 20 21 21 21 19 20 19 20 20 20 19 18 17 14 15 17 17 16
10 11 12 12 12 12 13 13 13 13 13 13 13 14 13 13 19 19 19 19 19 19 19 19 19 21 21 21 20 23 23 20 18 18 19 20 19 20 20 18 17 17 17 18 18
10 10 11 12 12 12 13 13 13 13 13 13 13 13 13 18 18 18 18 19 19 19 20 20 21 20 21 19 22 23 22 21 18 18 19 21 17 17 20 19 19 18 19 18 19
10 10 11 12 12 12 12 13 13 13 13 13 13 13 14 19 19 19 18 19 19 19 19 20 20 20 20 21 21 22 21 20 22 20 19 21 18 17 20 18 19 19 19 19 19
9 10 10 11 11 12 12 12 13 13 13 13 13 11 15 18 19 20 19 19 19 19 19 20 20 20 20 18 16 20 18 20 21 22 21 20 18 19 18 17 19 20 20 20 19
9 9 10 11 11 11 12 12 13 13 13 13 13 11 18 20 21 21 20 20 20 19 19 19 19 17 16 16 16 19 20 19 19 20 21 20 19 17 18 20 19 19 19 20 20
9 9 10 10 11 11 11 12 13 12 12 15 17 17 19 20 21 21 21 20 20 20 16 19 16 16 18 20 20 21 20 20 20 21 21 19 18 18 16 15 17 17 15 20 19
9 9 9 10 10 11 11 12 13 12 12 15 16 16 17 19 20 21 21 20 20 18 17 18 17 20 21 20 19 20 20 19 21 22 21 19 19 19 15 14 15 15 19 19 19
8 9 9 10 10 11 11 13 14 13 12 16 18 18 18 19 20 21 22 21 20 18 19 18 18 20 19 19 20 21 19 20 21 22 22 21 19 19 20 22 18 20 21 20 19
8 9 9 9 10 10 13 14 15 13 10 17 18 19 19 20 20 21 22 22 20 19 20 19 19 19 19 19 21 20 21 20 21 20 18 19 16 17 20 20 20 18 17 18 19
8 8 9 9 10 10 12 13 13 12 11 19 19 20 20 20 21 21 22 22 20 19 19 17 19 18 18 20 21 20 21 21 21 19 18 18 18 17 17 20 20 19 21 20 19
7 8 8 9 9 12 12 12 12 12 11 20 20 20 19 21 21 21 22 22 21 18 19 17 21 20 18 20 22 21 21 20 18 17 13 17 16 15 16 20 19 20 22 21 19
8 8 8 9 9 10 12 12 10 9 19 20 19 20 19 19 20 20 20 19 18 17 17 19 20 19 19 19 20 20 18 15 14 12 12 17 17 16 18 19 18 19 22 20 19
8 8 8 9 10 9 10 10 11 15 16 21 20 20 19 20 19 20 19 17 18 19 16 17 15 16 18 19 19 18 17 13 14 11 14 16 17 18 20 20 19 21 20 19 18
7 7 6 10 10 9 9 10 11 16 18 19 20 18 18 20 20 19 18 17 18 19 16 15 17 17 19 19 20 20 18 17 13 12 12 15 18 20 18 16 17 17 17 18 18
6 6 6 10 9 8 9 11 13 17 19 20 18 19 18 19 20 18 18 19 20 20 16 14 15 15 16 17 20 20 19 16 13 13 14 16 18 16 18 18 17 14 16 18 17
5 6 7 9 8 8 9 11 14 17 18 19 19 18 19 19 19 18 19 20 19 18 16 14 14 14 16 17 17 18 18 19 17 12 12 11 14 19 19 18 17 16 18 18 18
6 7 9 8 7 8 9 12 14 16 17 18 21 19 19 19 18 18 18 19 21 20 17 14 13 11 17 19 20 21 17 16 10 15 10 9 12 19 19 19 20 20 18 18 18
6 8 8 10 8 7 11 12 14 15 16 18 19 20 20 19 17 18 18 18 20 20 19 18 16 10 15 17 18 19 19 19 16 11 12 9 12 18 20 20 21 21 20 19 18
7 8 7 7 12 10 10 12 13 15 16 18 19 19 18 19 17 18 16 18 18 16 18 18 17 14 11 15 18 18 19 18 17 9 11 10 16 17 17 17 19 20 20 20 19
6 10 10 9 8 11 12 13 14 14 17 18 18 18 17 19 19 18 16 16 17 16 18 16 15 18 17 17 18 19 19 18 18 16 13 14 16 17 19 17 18 20 20 20 19
6 11 11 10 10 10 11 13 15 16 17 17 18 18 18 18 18 17 17 16 16 15 16 16 13 16 16 16 15 15 16 17 17 18 18 18 17 18 19 19 19 19 19 19 19
5 11 12 11 10 10 12 14 15 16 18 20 18 18 17 18 19 18 19 16 16 14 14 14 10 9 13 12 13 10 14 16 16 17 17 15 16 17 15 15 17 18 18 18 18
Height
1542 1540 1540 1539 1538 1537 1535 1533 1530 1527 1523 1521 1518 1513 1511 1507 1505 1504 1501 1501 1500 1500 1502 1503 1504 1507 1509 1508 1509 1511 1521 1521 1514 1512 1516 1511 1510 1510 1510 1512 1513 1517 1517 1520 1526
1539 1537 1537 1536 1535 1534 1532 1530 1528 1525 1522 1519 1516 1513 1510 1506 1503 1500 1502 1499 1497 1499 1500 1502 1503 1507 1509 1506 1507 1508 1517 1514 1507 1507 1510 1508 1502 1508 1516 1516 1519 1521 1523 1524 1524
1536 1534 1534 1533 1533 1531 1530 1528 1525 1522 1520 1517 1514 1512 1509 1506 1502 1500 1499 1497 1496 1498 1500 1501 1503 1506 1506 1505 1504 1503 1509 1506 1506 1511 1513 1512 1505 1501 1508 1515 1515 1517 1523 1527 1529
1533 1532 1531 1530 1530 1528 1528 1526 1524 1520 1518 1516 1514 1511 1508 1506 1505 1500 1499 1497 1496 1497 1500 1501 1502 1504 1504 1503 1497 1504 1495 1502 1507 1507 1511 1509 1506 1503 1508 1511 1515 1516 1521 1526 1529
1531 1529 1528 1528 1527 1526 1525 1524 1521 1518 1517 1515 1513 1510 1508 1506 1499 1498 1498 1498 1497 1498 1500 1500 1501 1501 1501 1497 1496 1496 1492 1502 1499 1493 1507 1506 1504 1506 1509 1514 1520 1518 1521 1527 1527
1529 1527 1526 1525 1525 1523 1523 1521 1519 1517 1515 1514 1512 1509 1508 1507 1499 1499 1499 1499 1499 1499 1499 1500 1500 1501 1497 1497 1495 1490 1491 1499 1502 1504 1504 1501 1504 1503 1507 1512 1517 1520 1523 1525 1526
1526 1525 1524 1523 1522 1521 1520 1519 1517 1514 1513 1513 1511 1508 1507 1499 1499 1498 1500 1500 1499 1500 1499 1498 1501 1500 1497 1494 1491 1488 1495 1494 1502 1499 1500 1500 1510 1508 1508 1511 1516 1521 1524 1524 1527
1523 1522 1521 1520 1520 1519 1518 1516 1514 1512 1511 1511 1510 1508 1501 1498 1498 1498 1498 1500 1500 1501 1500 1499 1499 1499 1500 1497 1492 1491 1495 1505 1493 1496 1497 1499 1513 1507 1510 1513 1516 1519 1520 1524 1529
1520 1519 1519 1518 1517 1517 1516 1513 1512 1511 1510 1509 1510 1508 1498 1495 1495 1495 1497 1499 1499 1500 1501 1501 1500 1500 1500 1501 1507 1497 1511 1503 1500 1492 1496 1496 1509 1505 1513 1517 1520 1520 1521 1523 1527
1516 1516 1517 1516 1515 1515 1514 1511 1509 1508 1508 1507 1508 1511 1495 1493 1492 1493 1495 1497 1500 1500 1502 1502 1501 1502 1502 1506 1519 1508 1505 1502 1502 1494 1492 1500 1504 1508 1512 1511 1516 1522 1525 1526 1527
1511 1513 1514 1514 1513 1513 1513 1510 1510 1508 1505 1500 1498 1492 1490 1493 1492 1493 1495 1497 1498 1501 1504 1500 1506 1511 1501 1496 1497 1497 1501 1502 1493 1488 1492 1499 1503 1505 1508 1510 1515 1519 1526 1524 1526
1508 1510 1511 1511 1512 1512 1511 1509 1508 1512 1502 1494 1491 1492 1490 1492 1491 1490 1494 1496 1497 1502 1499 1505 1508 1497 1493 1493 1498 1496 1500 1499 1488 1484 1490 1502 1503 1497 1507 1508 1509 1518 1516 1522 1523
1505 1506 1507 1508 1510 1510 1509 1506 1507 1506 1504 1488 1486 1486 1489 1490 1488 1486 1492 1492 1494 1500 1496 1504 1501 1495 1497 1497 1497 1496 1501 1494 1494 1488 1489 1493 1503 1502 1498 1500 1509 1507 1508 1513 1519
1501 1502 1505 1506 1511 1508 1506 1503 1504 1507 1509 1485 1480 1482 1485 1487 1486 1483 1488 1490 1492 1495 1497 1499 1493 1495 1497 1498 1489 1501 1489 1493 1493 1501 1517 1499 1530 1513 1502 1501 1500 1505 1507 1511 1514
1494 1498 1502 1505 1506 1505 1506 1504 1505 1506 1523 1471 1473 1476 1479 1483 1481 1482 1483 1486 1490 1495 1498 1504 1495 1498 1501 1494 1487 1493 1486 1489 1492 1500 1509 1508 1516 1512 1507 1502 1499 1502 1501 1504 1507
1488 1493 1497 1500 1501 1504 1504 1505 1507 1513 1514 1469 1468 1472 1478 1478 1479 1480 1481 1483 1488 1494 1492 1496 1492 1494 1493 1487 1485 1485 1489 1492 1497 1507 1535 1509 1514 1518 1507 1492 1494 1494 1497 1499 1503
1483 1487 1492 1496 1499 1502 1502 1504 1514 1518 1471 1465 1468 1469 1473 1477 1477 1477 1481 1485 1494 1504 1503 1493 1491 1492 1491 1494 1487 1490 1500 1526 1532 1542 1544 1511 1514 1505 1489 1487 1488 1489 1488 1498 1500
1477 1481 1485 1491 1498 1498 1500 1505 1506 1480 1473 1454 1462 1467 1475 1473 1475 1476 1480 1489 1484 1486 1499 1504 1516 1501 1496 1495 1494 1495 1501 1530 1539 1552 1532 1517 1517 1495 1478 1479 1487 1486 1490 1499 1500
1472 1475 1478 1485 1494 1497 1500 1497 1487 1472 1461 1461 1459 1469 1473 1470 1472 1477 1479 1484 1481 1480 1500 1507 1506 1493 1493 1492 1494 1493 1503 1493 1524 1531 1541 1519 1494 1479 1477 1482 1485 1488 1493 1498 1499
1462 1467 1469 1481 1489 1492 1494 1480 1473 1459 1455 1457 1469 1462 1474 1470 1472 1474 1478 1473 1474 1473 1479 1499 1509 1504 1499 1495 1486 1487 1488 1508 1515 1534 1533 1513 1501 1503 1488 1487 1484 1490 1493 1495 1497
1458 1463 1463 1475 1486 1487 1478 1472 1467 1454 1459 1459 1456 1460 1461 1466 1468 1471 1472 1466 1465 1474 1478 1490 1501 1506 1505 1499 1494 1493 1495 1491 1497 1517 1533 1543 1520 1484 1485 1483 1483 1486 1487 1489 1493
1447 1455 1457 1466 1479 1475 1468 1466 1462 1455 1455 1457 1449 1450 1455 1458 1468 1468 1468 1466 1461 1466 1476 1491 1497 1513 1495 1479 1476 1479 1489 1494 1526 1514 1525 1533 1521 1482 1480 1480 1480 1482 1484 1486 1489
1435 1447 1454 1455 1462 1462 1462 1462 1459 1453 1451 1452 1447 1446 1447 1454 1469 1459 1461 1462 1459 1463 1470 1475 1487 1518 1503 1490 1480 1481 1478 1479 1489 1507 1515 1537 1520 1480 1478 1479 1479 1480 1481 1484 1487
1427 1436 1445 1449 1441 1446 1453 1452 1454 1448 1449 1447 1445 1445 1449 1454 1456 1461 1464 1462 1461 1464 1467 1469 1478 1495 1516 1497 1484 1485 1479 1478 1485 1520 1514 1516 1496 1483 1479 1477 1477 1478 1480 1480 1482
1413 1412 1416 1422 1430 1434 1442 1443 1445 1448 1445 1444 1443 1444 1448 1453 1451 1457 1460 1465 1465 1466 1468 1471 1485 1479 1481 1481 1480 1477 1479 1479 1481 1486 1502 1494 1490 1480 1475 1474 1473 1474 1477 1480 1483
1400 1401 1411 1409 1423 1430 1431 1431 1434 1437 1439 1440 1442 1440 1442 1446 1448 1453 1452 1459 1463 1467 1468 1469 1487 1480 1485 1481 1484 1487 1482 1479 1478 1475 1475 1477 1481 1470 1471 1470 1473 1476 1478 1480 1482
1394 1397 1401 1407 1414 1423 1415 1420 1425 1428 1430 1430 1434 1437 1442 1442 1442 1446 1445 1453 1457 1465 1471 1477 1489 1498 1498 1495 1492 1506 1484 1478 1475 1473 1475 1485 1476 1467 1473 1473 1475 1475 1477 1480 1481
Wind_Speed
16 17 17 18 18 19 21 23 23 24 25 25 22 19 18 17 15 17 16 9 7 6 10 5 4 10 8 18 19 19 1 8 6 4 3 2 2 3 8 11 6 6 7 17 15
17 17 17 17 18 19 20 22 23 24 25 23 20 17 16 17 18 9 8 7 8 6 7 7 4 5 8 12 12 5 2 6 3 5 4 7 18 4 1 16 10 14 15 13 22
17 17 16 16 17 18 20 22 23 23 23 21 17 14 14 15 10 3 14 9 2 5 7 8 8 11 15 20 24 13 8 5 4 4 7 1 2 5 3 7 11 16 9 19 23
18 17 15 15 16 18 20 21 23 23 21 19 14 12 12 11 2 7 12 8 4 7 9 9 12 15 8 7 24 4 20 10 15 17 8 7 8 6 6 9 29 28 17 18 21
19 18 15 14 15 17 19 20 22 21 19 15 11 10 10 7 7 7 8 4 6 10 11 9 10 16 8 7 17 7 4 16 15 23 4 4 3 6 18 16 24 19 20 17 22
19 19 16 14 15 16 18 19 21 19 16 12 10 9 8 7 3 6 6 1 5 10 7 9 11 13 17 14 7 5 9 24 18 24 16 9 6 4 6 9 19 23 23 23 22
19 19 17 15 15 16 17 18 18 16 12 10 9 9 11 15 5 8 9 2 6 8 6 6 12 14 19 9 23 8 5 2 14 26 9 15 4 6 8 22 20 18 22 24 22
19 19 17 15 15 16 16 17 16 12 10 8 6 8 9 2 9 9 10 3 1 5 12 12 13 10 9 15 13 4 3 1 3 20 13 7 5 12 20 23 21 25 20 20 24
20 19 18 16 16 16 14 15 13 11 9 7 3 6 11 4 10 5 13 9 12 10 7 10 11 3 10 4 5 2 3 3 3 14 6 6 5 17 22 17 10 19 19 24 24
20 19 19 16 15 15 13 13 11 10 9 9 8 8 11 9 6 4 12 10 11 6 9 7 4 1 4 1 3 3 1 7 9 7 8 2 5 16 29 28 20 15 12 20 24
20 19 18 16 15 14 12 10 7 2 7 12 5 10 5 7 9 7 10 9 9 8 3 11 2 4 5 4 7 7 6 6 7 9 7 8 9 16 24 29 32 27 14 24 26
20 20 17 16 15 15 13 8 12 8 11 18 23 28 22 13 4 13 16 10 7 4 0 2 3 1 5 12 9 7 11 11 6 6 4 5 7 10 25 21 35 28 25 23 21
21 20 17 15 14 15 15 17 8 12 4 14 19 22 20 10 10 18 19 17 5 6 4 3 5 7 7 13 12 1 2 5 5 3 1 5 2 4 7 16 28 36 25 32 31
24 20 18 11 11 9 7 4 8 5 3 6 13 16 15 21 13 20 19 12 2 1 3 3 8 2 8 14 9 5 2 3 2 2 2 5 2 4 4 4 8 28 34 35 37
27 21 20 12 7 8 4 3 5 3 3 6 13 7 15 18 2 13 22 19 6 4 3 7 5 5 7 8 4 5 5 1 3 1 4 4 2 5 3 4 3 6 24 32 44
30 24 21 19 22 8 1 7 6 1 6 3 12 10 11 18 18 20 10 7 18 8 4 7 13 3 4 6 2 6 3 3 4 3 1 4 5 4 7 20 5 7 10 13 40
32 26 25 21 18 10 9 4 2 4 5 6 15 10 12 8 10 8 8 6 5 4 2 6 8 2 5 6 6 1 4 3 4 5 3 15 0 9 16 12 10 15 23 13 29
34 26 27 26 19 9 11 2 8 10 11 2 10 11 10 8 9 10 7 8 10 6 4 5 5 4 5 5 5 3 6 4 5 1 5 7 5 5 15 25 26 29 25 17 28
32 28 30 29 25 11 8 9 8 6 12 4 9 8 9 11 8 9 8 8 10 9 7 4 1 6 9 8 2 4 2 6 6 3 2 5 6 5 9 5 11 17 22 24 27
31 33 37 30 27 17 6 12 6 16 10 7 8 8 8 12 10 11 9 9 9 12 11 5 3 2 9 20 15 3 3 4 3 5 4 4 3 3 5 7 10 11 18 29 27
29 18 25 32 27 16 13 10 13 29 18 6 11 8 9 7 16 6 8 9 9 6 12 5 5 5 5 8 9 1 2 3 3 5 4 1 4 3 5 5 9 17 31 35 34
24 9 20 36 11 10 15 11 13 22 23 14 4 7 8 6 5 9 9 1 11 20 13 12 6 5 13 11 8 4 6 5 5 4 2 4 5 3 7 5 9 12 30 37 38
14 13 29 41 12 12 7 14 17 21 18 8 2 3 2 5 3 8 3 4 8 3 5 3 0 3 8 5 5 4 5 4 4 3 5 5 5 1 6 5 4 7 8 33 37
15 9 16 29 32 19 18 17 21 23 21 25 7 8 5 5 15 7 3 1 4 5 6 5 2 6 6 7 3 3 4 5 5 4 3 5 5 11 7 8 10 9 6 16 34
16 13 16 13 18 15 19 14 19 15 21 17 7 9 7 5 2 7 5 4 3 5 3 5 4 1 3 5 5 2 4 6 5 6 7 8 7 11 1 4 7 18 13 7 8
12 16 25 6 24 16 20 21 22 19 15 17 8 11 8 5 6 7 8 4 5 1 3 1 1 2 2 6 7 4 7 7 7 5 2 3 6 5 12 14 13 12 8 7 4
25 24 24 14 18 16 22 23 20 17 16 22 11 5 6 4 10 10 13 17 8 7 5 5 5 3 3 4 6 6 7 6 6 5 3 5 6 5 8 12 14 13 15 6 3
Wind_Direction
299 291 290 296 302 306 312 315 321 323 327 327 325 327 320 320 319 309 310 314 256 232 234 222 209 215 246 273 254 260 328 270 304 355 195 222 82 256 188 159 73 40 86 158 140
303 299 290 294 301 307 313 315 320 325 327 327 325 327 323 322 325 331 351 310 283 239 207 196 198 220 250 263 262 200 197 244 257 157 195 133 136 208 311 113 68 86 104 132 146
306 304 290 295 302 309 313 316 320 326 326 325 325 327 324 329 333 52 345 324 246 213 196 196 232 234 234 250 256 250 236 151 262 10 120 63 80 111 194 81 131 99 117 139 142
306 306 292 295 302 309 312 318 319 325 326 323 327 327 323 323 151 331 350 341 137 176 188 220 250 252 252 263 268 224 243 168 105 59 304 172 180 126 56 120 144 127 147 154 148
306 305 292 295 300 307 313 318 320 324 325 323 324 322 326 308 284 343 339 6 136 160 186 218 258 255 244 256 270 203 233 124 150 137 121 33 219 108 84 146 155 144 143 144 144
302 303 294 294 298 306 313 317 320 324 322 320 316 315 317 270 113 337 344 117 144 177 209 252 264 262 246 264 255 227 246 164 157 132 147 175 89 79 180 148 149 146 150 141 143
296 300 295 292 295 304 311 317 319 321 317 311 310 312 287 238 112 339 334 151 118 152 226 269 306 339 337 335 324 73 72 222 148 161 184 134 49 262 167 143 151 157 150 151 134
288 293 292 290 294 302 310 314 314 312 306 297 302 306 263 257 231 207 258 286 236 261 279 304 309 323 339 309 332 39 32 94 66 184 146 141 218 219 183 162 171 158 160 161 155
280 287 289 286 290 299 309 310 310 303 295 280 280 318 269 239 243 200 214 237 227 242 252 292 311 309 296 322 348 265 228 117 243 234 141 172 176 181 173 169 195 170 171 158 147
271 281 284 282 286 295 303 304 300 289 273 263 242 294 247 222 193 264 203 216 192 217 236 258 261 247 324 80 229 267 243 211 202 247 178 140 157 124 156 139 181 240 182 165 159
262 272 280 281 283 291 296 299 327 356 268 235 254 234 2 317 183 207 183 196 194 162 225 209 116 220 245 261 274 224 239 271 259 209 167 164 160 141 148 150 177 213 247 159 158
253 263 271 276 280 285 281 256 95 350 295 272 262 257 273 285 294 230 191 184 151 195 94 235 203 185 28 248 260 283 338 266 249 151 147 121 202 183 160 175 181 182 164 190 173
246 254 260 266 278 287 283 263 220 329 288 286 242 241 240 236 247 255 189 210 127 161 187 146 245 309 277 274 274 155 265 293 137 119 343 15 75 178 204 180 162 177 197 187 194
232 247 253 257 272 301 327 9 210 264 342 256 189 235 233 231 234 242 232 203 153 82 181 245 254 261 282 285 244 246 126 315 128 25 170 78 291 14 333 171 194 174 184 193 188
222 242 245 230 227 212 1 78 143 129 332 231 173 201 199 216 139 247 242 202 131 138 103 243 261 271 294 244 72 253 180 225 294 311 78 327 128 239 330 295 257 277 188 184 186
217 236 232 225 229 185 169 112 161 66 247 211 164 173 193 206 224 245 197 231 151 162 199 215 258 140 238 280 165 282 328 339 343 101 109 220 145 225 191 214 188 259 201 184 179
212 229 226 228 230 235 220 165 105 181 273 200 160 175 198 202 223 235 176 186 176 107 184 272 262 299 244 308 294 64 19 3 0 12 236 10 62 239 219 219 202 199 201 195 171
208 223 221 225 198 168 171 153 215 199 245 89 162 178 186 209 212 246 162 190 232 197 120 197 324 10 15 249 192 233 150 165 167 174 301 350 233 235 217 206 205 213 215 193 161
202 213 221 215 197 187 185 209 194 226 211 252 161 165 206 220 179 208 216 199 202 216 140 133 124 350 297 323 272 293 337 175 101 7 59 223 254 354 106 137 188 204 199 178 163
201 204 219 208 196 195 222 221 227 245 286 228 218 177 198 207 221 182 195 225 221 206 123 189 128 31 307 300 282 191 253 22 24 143 241 285 324 197 123 167 207 182 199 173 171
189 193 219 206 191 200 216 223 231 256 268 260 224 190 210 197 203 208 204 232 166 136 92 141 111 255 192 234 234 223 257 220 142 132 169 175 280 175 105 146 146 187 180 180 181
183 200 200 188 168 209 221 216 245 252 260 269 266 210 198 157 246 205 215 340 185 157 140 220 167 149 210 232 196 183 187 182 124 258 185 146 270 196 142 167 162 172 186 189 189
192 165 188 184 195 212 202 226 235 249 260 269 198 222 270 192 201 192 119 324 82 98 132 169 219 53 344 343 345 250 225 227 127 91 186 133 257 209 167 172 154 173 163 193 193
176 170 172 202 210 192 194 209 223 244 256 262 220 263 286 182 157 261 129 44 45 104 115 112 162 149 186 216 229 299 252 275 158 114 204 205 265 297 256 198 198 188 169 181 198
194 196 185 190 210 195 188 200 208 228 221 245 231 217 218 205 181 196 97 119 122 145 133 115 159 267 298 323 336 290 248 296 264 208 152 233 217 257 2 137 201 195 192 195 139
191 185 179 188 186 202 187 211 207 217 233 224 226 217 221 188 178 208 131 142 172 53 121 71 202 92 304 339 32 355 327 319 311 309 312 257 248 229 154 114 90 81 109 120 86
221 200 182 185 179 194 199 198 212 210 231 210 215 175 196 191 118 80 104 83 119 139 163 125 124 95 235 355 16 343 241 235 247 276 257 290 276 349 58 63 66 67 61 80 106